Location: Leutershausen
(50.3288°N, 10.1622°E)
Time: 07:41:20
(UTC+00:00)

Daily predictions for brighter satellites

Satellite Brightness Start Highest point End
(mag) Time Altitude Azimuth Time Altitude Azimuth Time Altitude Azimuth
MetOp-B 4.3 19:34:35 10° SSE 19:39:57 83° WSW 19:45:21 10° NNW
Cosmos 1459 Rocket 4.5 19:35:55 10° SSW 19:42:05 66° WNW 19:48:11 10° N
Cosmos 1980 Rocket 3.5 19:37:25 10° NW 19:42:40 39° WSW 19:47:52 10° S
Cosmos 2061 Rocket 4.2 19:37:27 10° S 19:43:31 58° E 19:49:41 10° NNE
CZ-4 R/B 2.6 19:41:30 10° SSW 19:44:51 36° W 19:48:15 10° NNW
USA 186 2.1 19:43:08 10° SE 19:45:42 37° ENE 19:48:19 10° N
Cosmos 2228 2.8 19:42:00 10° S 19:46:05 76° E 19:50:12 10° NNE
COSMOS 2406 3.5 19:41:17 10° S 19:46:43 46° ESE 19:52:10 10° NE
SL-08 R/B 3.4 19:42:54 10° NNE 19:47:40 58° ESE 19:52:19 10° S
CZ-4B R/B 4.5 19:43:55 10° ESE 19:48:04 30° ENE 19:52:19 10° N
Cosmos 1933 4.4 19:45:38 10° SE 19:48:47 25° E 19:51:57 10° NNE
Cosmos 1743 3.6 19:46:17 10° NNW 19:49:04 35° W 19:51:51 10° SSW
ISS -3.5 19:46:30 10° W 19:49:51 73° N 19:53:12 10° ENE
Cosmos 1461 3.2 19:47:15 10° S 19:50:38 34° ESE 19:54:00 10° NE
Cosmos 1455 Rocket 3.6 19:46:31 10° SSW 19:50:53 65° WNW 19:55:15 10° N
Cosmos 1992 Rocket 4.0 19:45:53 10° S 19:51:00 62° ESE 19:56:09 10° NNE
Cosmos 1892 Rocket 4.4 19:47:06 10° NNW 19:51:16 49° W 19:55:25 10° S
SKYMED 3 4.3 19:47:35 10° NNE 19:51:33 77° ESE 19:55:31 10° S
Cosmos 1802 Rocket 4.3 19:45:44 10° SSW 19:51:52 73° W 19:58:02 10° N
Terra 2.3 19:48:15 10° S 19:52:54 61° W 19:57:34 10° NNW
Meteor 1-20 Rocket 4.5 19:47:57 10° N 19:53:28 56° ENE 19:59:02 10° SSE
Okean O Rocket 1.6 19:53:11 10° SSE 19:57:28 76° ENE 20:01:47 10° N
Cosmos 2333 Rocket 2.4 19:53:15 10° NNW 19:58:57 69° ENE 20:04:29 11° SE
NOSS 3-3 (A) 3.7 19:59:24 10° SW 20:04:37 86° SE 20:10:58 10° NE
Cosmos 1544 Rocket 3.7 20:00:27 10° S 20:04:39 51° E 20:08:51 10° NNE
Cosmos 1437 Rocket 3.0 20:03:45 10° SSE 20:07:06 41° E 20:10:31 10° NNE
Cosmos 2360 Rocket 2.7 20:03:24 10° NNW 20:08:57 51° NE 20:13:59 12° SE
Helios 1A Rocket 3.5 20:05:59 10° N 20:09:00 43° WNW 20:11:59 10° SW
CZ-4B R/B 4.1 20:07:50 10° S 20:13:18 50° W 20:18:45 10° NNW
EP 1 4.3 20:11:12 10° NW 20:13:47 68° NE 20:15:44 17° SE
Cosmos 2233 Rocket 4.2 20:09:16 10° SSW 20:15:27 76° W 20:21:38 10° N
Cosmos 1486 Rocket 4.2 20:14:17 10° NNW 20:19:31 63° ENE 20:23:55 15° SE
Okean-O 2.9 20:15:18 10° S 20:19:39 68° WSW 20:24:02 10° NNW
Cosmos 1758 Rocket 3.7 20:16:59 10° NNW 20:21:24 80° W 20:25:48 10° S
Cosmos 2219 Rocket 3.0 20:16:15 10° NNW 20:21:39 42° NE 20:26:24 13° ESE
Cosmos 909 Rocket 4.1 20:15:34 10° SW 20:21:52 86° NW 20:28:30 10° NE
CZ-2C R/B 3.3 20:21:09 17° ESE 20:22:38 26° ENE 20:25:01 10° N
DNEPR-1 R/B 4.4 20:24:03 10° NW 20:29:30 85° SW 20:34:57 16° SE
Nadezhda 4 Rocket 4.3 20:24:38 10° N 20:30:37 53° ENE 20:35:26 16° SSE
Meteor 1-25 Rocket 4.2 20:25:09 10° N 20:30:51 80° ENE 20:35:42 14° SSE
USA 245 4.3 20:25:40 12° SSE 20:31:12 86° ENE 20:36:41 10° NNW
IRS-1C Rocket 4.2 20:27:08 15° SSE 20:31:32 67° ENE 20:36:47 10° N
Cosmos 1825 Rocket 4.1 20:29:51 10° N 20:34:01 43° ENE 20:36:52 19° SE
Cosmos 1805 2.9 20:31:25 10° N 20:34:39 57° ENE 20:36:34 22° SSE
Cosmos 220 Rocket 3.8 20:33:03 10° SSW 20:37:03 66° ESE 20:41:09 10° NNE
NOSS 3-3 (C) 4.0 20:31:54 10° SW 20:37:14 74° NW 20:43:43 10° NE
Meteor 2-10 4.4 20:32:47 10° N 20:38:31 63° ENE 20:42:49 18° SSE
Cosmos 2322 Rocket 2.2 20:35:51 10° NNW 20:41:33 87° ENE 20:45:49 18° SSE
RESURS DK-1 4.5 20:39:28 10° N 20:42:12 17° NE 20:44:56 10° E
Cosmos 1602 Rocket 3.6 20:41:01 10° NNW 20:45:21 79° W 20:48:44 16° S
USA 306 3.3 20:43:38 10° WNW 20:46:07 28° N 20:47:38 11° NE
Cosmos 2082 Rocket 3.7 20:41:34 10° WSW 20:46:57 41° NW 20:52:21 10° NNE
NOSS 3-4 (A) 3.9 20:42:28 10° NW 20:49:08 77° SW 20:55:06 18° SSE
NOSS 3-4 (C) 3.9 20:43:06 10° NW 20:49:47 78° SW 20:55:45 19° SSE
Cosmos 1707 4.0 20:52:04 15° E 20:52:04 15° E 20:53:41 10° NE
CZ-4B R/B 2.8 20:49:58 19° S 20:52:14 60° WSW 20:55:42 10° NNW
Cosmos 2058 Rocket 4.5 20:53:53 19° ESE 20:55:23 23° E 20:58:46 10° NE
Cosmos 2151 3.9 20:51:38 10° NNW 20:55:32 42° W 20:59:05 12° SSW
Cosmos 2098 Rocket 3.0 20:53:24 14° S 20:57:24 81° E 21:01:29 10° NNE
Cosmos 1076 Rocket 3.7 20:53:54 10° N 20:58:05 55° ENE 21:00:20 25° SE
Cosmos 44 3.9 20:53:36 10° NW 20:58:57 57° NE 21:02:45 18° ESE
Cosmos 2237 Rocket 4.3 20:55:17 10° N 20:59:19 19° NE 21:03:19 10° E
CZ-4C R/B 4.3 20:56:37 10° WNW 21:00:51 28° NNW 21:06:07 10° NE
Ariane Rocket 3.1 20:59:02 18° S 21:02:48 71° WSW 21:07:53 10° NNW
Cosmos 2278 4.4 21:03:08 10° NW 21:08:35 47° WSW 21:12:37 18° S
SL-16 R/B 3.4 21:07:24 10° NW 21:12:30 35° WSW 21:16:43 14° SSW
COSMOS 2428 3.7 21:08:12 10° NNW 21:13:31 38° NE 21:17:37 16° ESE
SPOT 3 Rocket 4.3 21:09:24 14° S 21:13:31 46° W 21:18:29 10° NNW
Cosmos 1763 Rocket 3.5 21:10:53 18° S 21:14:49 62° ESE 21:20:01 10° NNE
USA 186 4.4 21:14:28 10° WSW 21:15:15 11° W 21:16:03 10° WNW
Cosmos 1470 4.4 21:13:04 10° NNE 21:15:16 16° ENE 21:16:07 15° E
ARIANE 5 R/B 4.5 21:15:19 14° E 21:17:46 21° ENE 21:21:05 10° NNE
USA 290 2.2 21:18:07 24° SSW 21:19:52 78° WNW 21:23:01 10° NNE
Cosmos 1606 Rocket 3.6 21:17:15 19° SSW 21:20:17 79° W 21:24:37 10° N
Cosmos 1898 Rocket 4.5 21:16:24 10° NNW 21:21:15 38° NE 21:24:24 19° ESE
Cosmos 990 Rocket 3.9 21:18:03 10° NNW 21:23:15 84° WSW 21:26:04 28° SSE
Cosmos 1464 Rocket 4.1 21:18:41 13° SSW 21:24:17 77° W 21:30:31 10° N
Helios 1B rocket 3.2 21:24:22 25° ESE 21:25:27 31° ENE 21:28:36 10° N
CZ-4B R/B 4.3 21:23:16 17° SSW 21:26:33 41° W 21:31:10 10° NNW
ISS -3.8 21:23:24 10° WNW 21:26:46 83° NNE 21:28:15 31° E
Cosmos 1461 4.4 21:23:33 10° WSW 21:26:55 32° NW 21:30:16 10° NNE
Okean 1 3.1 21:25:54 27° SSW 21:27:42 73° W 21:31:19 10° N
Cosmos 1726 Rocket 3.3 21:25:49 27° S 21:27:57 88° W 21:32:02 10° N
BREEZE-M DEB (TANK) 1.7 21:26:25 10° W 21:28:12 43° WSW 21:28:12 43° WSW
Okean O Rocket 4.1 21:32:02 10° WSW 21:34:11 14° W 21:36:21 10° WNW
Cosmos 1536 2.8 21:32:20 10° N 21:35:58 58° ENE 21:36:59 41° SE
Cosmos-2242 2.8 21:37:47 37° S 21:39:17 69° E 21:43:24 10° NNE
Cosmos 1092 Rocket 3.9 21:35:40 10° N 21:41:53 84° E 21:45:20 28° SSE
Cosmos 2333 Rocket 3.9 21:38:18 10° NW 21:42:44 24° WSW 21:46:30 13° SSW
KORONAS-FOTON 3.7 21:43:53 46° ESE 21:44:12 48° E 21:47:30 10° NNE
Cosmos 2297 Rocket 3.7 21:46:14 18° ESE 21:47:05 18° E 21:50:48 10° ENE
Cosmos 841 Rocket 4.3 21:47:27 29° SE 21:48:43 32° ESE 21:53:20 10° NE
Cosmos 1833 4.2 21:44:12 11° SSW 21:49:40 81° WNW 21:55:20 10° NNE
Cosmos 2360 Rocket 3.4 21:47:44 10° NW 21:52:44 33° WSW 21:55:44 20° SSW
CZ-2C R/B 4.3 21:52:45 14° WSW 21:53:25 15° W 21:55:11 10° NW
Cosmos 1766 3.0 21:53:06 10° NNW 21:56:17 58° W 21:56:45 51° SW
Cosmos 1842 3.1 21:56:49 47° E 21:56:49 47° E 21:59:47 10° NNE
Cosmos 2322 3.7 21:51:46 10° NNW 21:57:30 77° ENE 22:00:18 31° SE
Cosmos 1975 3.3 21:55:03 10° N 21:58:33 40° ENE 21:59:14 36° ESE
Spot 4 4.4 21:57:15 29° ESE 21:59:15 47° ENE 22:03:51 10° N
Meteor 2-6 Rocket 4.4 21:58:28 32° SSE 22:01:17 64° E 22:07:10 10° NNE
Cosmos 372 Rocket 3.9 21:58:15 10° NNW 22:03:24 84° WSW 22:05:24 38° SSE
Cosmos 2034 Rocket 4.4 21:58:36 17° SSW 22:03:32 61° WNW 22:09:49 10° N
Cosmos 2221 3.1 22:03:18 36° ESE 22:04:01 39° E 22:07:56 10° NNE
Cosmos 2219 Rocket 3.0 22:00:19 10° NW 22:05:34 40° WSW 22:08:05 26° SSW
Cosmos 1271 Rocket 2.5 22:06:21 55° ESE 22:06:26 55° E 22:09:45 10° NNE
SL-08 ROCKET BODY 4.4 22:04:27 10° N 22:10:40 84° E 22:13:38 33° SSE
Cosmos 540 Rocket 4.1 22:07:44 14° SW 22:12:07 54° WNW 22:17:12 10° NNE
Helios 1A 3.1 22:12:50 10° N 22:16:44 62° WNW 22:18:07 36° SW
Cosmos 2279 Rocket 4.0 22:16:39 33° S 22:19:42 79° E 22:25:59 10° NNE
RESURS DK-1 2.2 22:16:05 10° NNW 22:20:03 78° WSW 22:20:45 58° S
Aureole 1 Rocket 4.4 22:15:44 10° NNW 22:21:25 53° WSW 22:24:34 30° SSW
Cosmos 1707 3.7 22:23:33 25° W 22:23:58 26° WNW 22:26:25 10° NNW
Cosmos 2322 Rocket 4.1 22:21:10 10° WNW 22:24:50 18° W 22:27:37 13° SW
Cosmos 1634 Rocket 4.1 22:22:34 27° SSW 22:26:07 70° WNW 22:32:21 10° N
Meteor 1-19 Rocket 4.4 22:24:38 36° SSE 22:26:55 63° E 22:32:48 10° NNE
Cosmos 1937 Rocket 3.4 22:23:09 10° NNW 22:28:19 88° ENE 22:30:09 41° SSE
TSX-5 4.2 22:27:13 10° NW 22:29:55 36° WSW 22:29:55 36° WSW
Geosat 4.2 22:27:22 10° NNE 22:32:21 68° NW 22:35:38 21° SW
SL-16 R/B 4.1 22:28:00 10° NNW 22:32:39 25° NE 22:37:16 10° E
Cosmos 2058 Rocket 4.0 22:30:59 25° SW 22:32:59 41° WNW 22:37:07 10° N
CZ-2C R/B 3.6 22:28:30 10° NNE 22:33:00 80° ESE 22:34:15 47° S
Cosmos 468 Rocket 4.4 22:30:13 23° SW 22:33:31 63° WNW 22:38:44 10° NNE
GP-B 3.7 22:31:03 10° NNE 22:35:15 44° E 22:36:11 38° ESE
Meteor 2-9 Rocket 4.2 22:33:57 10° NNW 22:39:21 73° W 22:41:24 39° S
Cosmos 44 4.4 22:35:07 10° NW 22:39:52 32° WSW 22:41:01 29° SW
CZ-2C R/B 3.5 22:39:09 24° ESE 22:41:44 41° ENE 22:46:35 10° N
Lacrosse 4 Rocket 2.8 22:42:44 23° E 22:42:44 23° E 22:45:24 10° ENE
Cosmos 2237 Rocket 2.3 22:38:45 10° NNW 22:44:26 70° ENE 22:47:09 32° SE
SeaSat 1 4.1 22:42:55 10° ESE 22:47:08 30° NE 22:51:21 10° NNW
USA 234 3.6 22:41:30 10° ENE 22:47:41 42° SE 22:49:36 35° S
Cosmos 2266 Rocket 3.9 22:41:49 10° N 22:47:54 84° E 22:50:26 37° SSE
Cosmos 1980 3.7 22:43:00 10° NNW 22:48:42 79° ENE 22:51:12 35° SE
Cosmos 1470 3.4 22:46:16 10° NNW 22:49:18 34° W 22:49:18 34° W
ATLAS 2AS CENTAUR R/B 4.4 22:46:35 10° NW 22:52:36 32° NNE 22:58:36 10° E
Intercosmos 24 3.9 22:49:15 10° N 22:53:03 56° ENE 22:53:29 51° ESE
ARIANE 5 R/B 2.9 22:52:41 45° SSW 22:53:41 57° W 22:58:06 10° NNW
ALOS 2 2.7 22:54:46 50° SSW 22:55:43 65° WSW 23:00:06 10° NNW
Cosmos 2227 Rocket 3.4 22:55:49 25° SE 22:57:02 27° ESE 23:01:42 10° NE
COSMOS 2428 3.2 22:52:27 10° NW 22:57:53 47° WSW 22:59:35 36° SSW
Helios 1B rocket 3.8 22:58:18 21° W 22:58:29 22° W 23:01:16 10° NW
Meteor 2-4 Rocket 4.1 23:00:13 35° SE 23:01:58 47° E 23:07:16 10° NNE
BlueWalker 3 3.9 23:05:21 17° E 23:05:21 17° E 23:06:22 10° E
Cosmos 1898 Rocket 4.3 22:58:28 10° NW 23:03:14 38° WSW 23:04:34 32° SW
ISS -1.4 23:00:21 10° W 23:01:11 16° W 23:01:11 16° W
Cosmos 2263 Rocket 3.8 23:03:56 18° ESE 23:05:13 20° E 23:09:07 10° NE
CZ-2C R/B 3.5 23:01:36 10° NNE 23:07:21 62° ESE 23:09:26 39° SSE
Meteor 1-11 Rocket 3.8 23:02:37 10° NNW 23:08:13 65° W 23:10:10 40° SSW
Cosmos 1766 Rocket 3.6 23:04:53 10° N 23:09:12 68° E 23:10:08 50° SE
SAR-Lupe-2 3.8 23:10:57 49° W 23:10:57 49° W 23:14:00 10° NNW
Meteor 1-10 Rocket 4.4 23:11:29 35° SSW 23:14:04 74° WNW 23:20:02 10° N
Cosmos 1238 Rocket 2.9 23:14:04 56° SE 23:14:39 64° E 23:19:02 10° NNE
PSLV R/B 3.7 23:11:49 10° N 23:16:06 69° WNW 23:17:16 46° SW
Cosmos 1655 Rocket 4.0 23:15:08 10° N 23:21:24 78° E 23:24:15 35° SSE
Cosmos 192 4.4 23:17:36 10° NNW 23:22:34 77° ENE 23:24:20 40° SE
Cosmos 1814 Rocket 4.5 23:21:58 38° SE 23:23:17 47° ESE 23:28:18 10° NNE
Alouette 2 Rocket 3.5 23:23:14 10° NNW 23:27:04 85° ENE 23:28:18 48° SSE
Meteor 1-27 Rocket 3.7 23:25:49 39° SSW 23:28:08 84° WNW 23:33:54 10° NNE
Meteor 2-10 Rocket 3.8 23:24:12 10° N 23:29:44 71° ENE 23:32:13 35° SSE
Cosmos 841 Rocket 4.4 23:27:23 22° WSW 23:30:22 44° WNW 23:35:23 10° NNE
Cosmos 2297 Rocket 2.1 23:27:59 36° SSW 23:30:22 85° WNW 23:36:04 10° NNE
SL-14 R/B 4.0 23:39:49 36° ESE 23:40:19 38° E 23:43:51 10° NNE
Cosmos 2221 4.2 23:39:35 19° W 23:41:11 23° WNW 23:44:36 10° NNW
Cosmos 158 Rocket 4.0 23:39:40 43° S 23:41:25 73° ESE 23:46:44 10° NNE
CZ-4C R/B 3.8 23:38:28 10° NNE 23:41:43 39° E 23:41:47 39° ESE
ACS3 Solar Sail 2.4 23:37:44 10° NNE 23:43:30 45° E 23:46:10 29° SSE
MetOp-A 4.3 23:42:38 40° SW 23:43:44 47° W 23:48:14 10° NNW
Landsat 5 3.3 23:43:44 10° NNE 23:47:49 70° ESE 23:48:28 57° SSE
